Weather History for KJGG - August, 2012

Change the Weather History Date:

Monday, August 6, 2012

  Actual Average Record
Temperature  
Mean Temperature 82 °F -  
Max Temperature 89 °F 87 °F 100 °F (1977)
Min Temperature 75 °F 66 °F 47 °F (1970)
Cooling Degree Days 17    
Growing Degree Days 32 (Base 50)    
Moisture  
Dew Point 74 °F    
Average Humidity 81    
Maximum Humidity 94    
Minimum Humidity 59    
Precipitation  
Precipitation 0.21 in - - ()
Sea Level Pressure  
Sea Level Pressure 30.07 in    
Wind  
Wind Speed 6 mph (SW)    
Max Wind Speed 10 mph    
Max Gust Speed 16 mph    
Visibility 10 miles    
Events      
Averages and records for this station are not official NWS values.
T = Trace of Precipitation, MM = Missing Value Source: NWS Daily Summary

Daily Weather History Graph

Daily Weather History Graph

Search for Another Location

Airport or City:

Trip Planner

Search our weather history database for the weather conditions in past years. The results will help you decide how hot, cold, wet, or windy it might be!

Date:

Astronomy

Aug. 06, 2012 Rise Set
Actual Time 6:16 AM EDT 8:08 PM EDT
Civil Twilight 5:47 AM EDT 8:37 PM EDT
Nautical Twilight 5:13 AM EDT 9:11 PM EDT
Astronomical Twilight 4:36 AM EDT 9:48 PM EDT
Moon 10:25 PM EDT (8/6) 10:54 AM EDT (8/6)
Length of Visible Light 14h 49m
Length of Day
13h 52m
Waning Gibbous, 78% of the Moon is Illuminated
Aug 6
Waning Gibbous
Aug 9
Last Quarter
Aug 17
New
Aug 24
First Quarter
Aug 31
Full

Hourly Weather History & Observations

Time (EDT) Temp. Heat Index Dew Point Humidity Pressure Visibility Wind Dir Wind Speed Gust Speed Precip Events Conditions
12:15 AM 80.6 °F 84.6 °F 71.6 °F 74% 30.11 in 10.0 mi SSW 6.9 mph - N/A   Clear
12:35 AM 80.6 °F 84.6 °F 71.6 °F 74% 30.11 in 10.0 mi SW 4.6 mph - N/A   Clear
12:55 AM 80.6 °F 84.6 °F 71.6 °F 74% 30.10 in 10.0 mi SW 4.6 mph - N/A   Clear
1:15 AM 80.6 °F 84.6 °F 71.6 °F 74% 30.10 in 10.0 mi SSW 4.6 mph - N/A   Clear
1:35 AM 80.6 °F 85.4 °F 73.4 °F 79% 30.09 in 10.0 mi SSW 6.9 mph - N/A   Clear
1:55 AM 80.6 °F 85.4 °F 73.4 °F 79% 30.09 in 10.0 mi Calm Calm - N/A   Clear
2:15 AM 78.8 °F - 73.4 °F 83% 30.09 in 10.0 mi SSW 6.9 mph - N/A   Clear
2:35 AM 78.8 °F - 73.4 °F 83% 30.09 in 10.0 mi SW 6.9 mph - N/A   Clear
2:55 AM 78.8 °F - 73.4 °F 83% 30.09 in 10.0 mi SW 8.1 mph - N/A   Clear
3:15 AM 78.8 °F - 73.4 °F 83% 30.09 in 10.0 mi WSW 5.8 mph - N/A   Clear
3:35 AM 78.8 °F - 73.4 °F 83% 30.09 in 10.0 mi SW 8.1 mph - N/A   Clear
3:55 AM 78.8 °F - 73.4 °F 83% 30.09 in 10.0 mi WSW 9.2 mph - N/A   Clear
4:15 AM 78.8 °F - 73.4 °F 83% 30.09 in 10.0 mi WSW 8.1 mph - N/A   Clear
4:35 AM 78.8 °F - 73.4 °F 83% 30.09 in 10.0 mi WSW 9.2 mph - N/A   Clear
4:55 AM 78.8 °F - 73.4 °F 83% 30.09 in 10.0 mi WSW 8.1 mph - N/A   Clear
5:15 AM 78.8 °F - 73.4 °F 83% 30.09 in 10.0 mi WSW 5.8 mph - N/A   Clear
5:35 AM 78.8 °F - 73.4 °F 83% 30.09 in 10.0 mi SW 8.1 mph - N/A   Clear
5:55 AM 78.8 °F - 73.4 °F 83% 30.10 in 10.0 mi WSW 10.4 mph - N/A   Clear
6:15 AM 78.8 °F - 73.4 °F 83% 30.10 in 10.0 mi West 6.9 mph - N/A   Clear
6:35 AM 78.8 °F - 73.4 °F 83% 30.10 in 10.0 mi West 8.1 mph - N/A   Clear
6:55 AM 78.8 °F - 73.4 °F 83% 30.10 in 10.0 mi SW 4.6 mph - N/A   Clear
7:15 AM 78.8 °F - 73.4 °F 83% 30.10 in 10.0 mi SW 5.8 mph - N/A   Clear
7:35 AM 78.8 °F - 73.4 °F 83% 30.10 in 10.0 mi WSW 4.6 mph - N/A   Clear
7:55 AM 78.8 °F - 73.4 °F 83% 30.10 in 10.0 mi WSW 5.8 mph - N/A   Clear
8:15 AM 78.8 °F - 73.4 °F 83% 30.10 in 10.0 mi WSW 8.1 mph - N/A   Clear
8:35 AM 80.6 °F 85.4 °F 73.4 °F 79% 30.10 in 10.0 mi WSW 8.1 mph - N/A   Scattered Clouds
8:55 AM 80.6 °F 85.4 °F 73.4 °F 79% 30.10 in 10.0 mi WSW 6.9 mph - N/A   Mostly Cloudy
9:15 AM 80.6 °F 85.4 °F 73.4 °F 79% 30.10 in 10.0 mi West 5.8 mph - N/A   Mostly Cloudy
9:35 AM 80.6 °F 85.4 °F 73.4 °F 79% 30.10 in 10.0 mi West 8.1 mph - N/A   Mostly Cloudy
9:55 AM 80.6 °F 85.4 °F 73.4 °F 79% 30.09 in 10.0 mi West 8.1 mph - N/A   Mostly Cloudy
10:15 AM 82.4 °F 88.2 °F 73.4 °F 74% 30.09 in 10.0 mi WNW 10.4 mph - N/A   Mostly Cloudy
10:35 AM 82.4 °F 88.2 °F 73.4 °F 74% 30.10 in 10.0 mi WSW 9.2 mph - N/A   Mostly Cloudy
10:55 AM 84.2 °F 90.9 °F 73.4 °F 70% 30.09 in 10.0 mi West 10.4 mph - N/A   Mostly Cloudy
11:15 AM 84.2 °F 90.9 °F 73.4 °F 70% 30.09 in 10.0 mi WSW 10.4 mph - N/A   Mostly Cloudy
11:35 AM 86.0 °F 93.4 °F 73.4 °F 66% 30.09 in 10.0 mi WSW 5.8 mph - N/A   Mostly Cloudy
11:55 AM 86.0 °F 95.1 °F 75.2 °F 70% 30.08 in 10.0 mi WSW 6.9 mph - N/A   Scattered Clouds
12:15 PM 87.8 °F 97.6 °F 75.2 °F 66% 30.08 in 10.0 mi West 3.5 mph - N/A   Scattered Clouds
12:35 PM 89.6 °F 99.8 °F 75.2 °F 62% 30.08 in 10.0 mi West 5.8 mph - N/A   Scattered Clouds
12:55 PM 89.6 °F 99.8 °F 75.2 °F 62% 30.07 in 10.0 mi West 5.8 mph - N/A   Scattered Clouds
1:15 PM 89.6 °F 99.8 °F 75.2 °F 62% 30.07 in 10.0 mi WNW 6.9 mph - N/A   Clear
1:35 PM 89.6 °F 98.2 °F 73.4 °F 59% 30.07 in 10.0 mi West 3.5 mph - N/A   Clear
1:55 PM 84.2 °F 94.1 °F 77.0 °F 79% 30.07 in 1.5 mi West 8.1 mph - 0.01 in   Mostly Cloudy
2:15 PM 77.0 °F - 71.6 °F 83% 30.06 in 4.0 mi SSW 6.9 mph - 0.12 in   Overcast
2:35 PM 75.2 °F - 71.6 °F 89% 30.05 in 10.0 mi Calm Calm - 0.13 in   Scattered Clouds
2:55 PM 78.8 °F - 75.2 °F 89% 30.05 in 10.0 mi Calm Calm - 0.14 in   Clear
3:15 PM 80.6 °F 87.1 °F 77.0 °F 89% 30.04 in 10.0 mi Calm Calm - N/A   Clear
3:35 PM 82.4 °F 89.5 °F 75.2 °F 79% 30.03 in 10.0 mi Calm Calm - N/A   Clear
3:55 PM 84.2 °F 92.3 °F 75.2 °F 74% 30.02 in 10.0 mi Calm Calm - N/A   Clear
4:15 PM 84.2 °F 96.1 °F 78.8 °F 84% 30.01 in 10.0 mi Calm Calm - N/A   Clear
4:35 PM 82.4 °F 90.9 °F 77.0 °F 84% 30.01 in 10.0 mi Calm Calm - N/A   Clear
4:55 PM 80.6 °F 86.2 °F 75.2 °F 84% 30.02 in 10.0 mi SSE 4.6 mph - N/A   Clear
5:15 PM 80.6 °F 86.2 °F 75.2 °F 84% 30.02 in 10.0 mi Calm Calm - N/A   Clear
5:35 PM 80.6 °F 86.2 °F 75.2 °F 84% 30.02 in 10.0 mi South 6.9 mph - N/A   Clear
5:55 PM 80.6 °F 86.2 °F 75.2 °F 84% 30.03 in 10.0 mi South 10.4 mph 16.1 mph N/A   Scattered Clouds
6:15 PM 80.6 °F 85.4 °F 73.4 °F 79% 30.02 in 10.0 mi South 6.9 mph - N/A   Scattered Clouds
6:35 PM 78.8 °F - 75.2 °F 89% 30.03 in 10.0 mi South 3.5 mph - 0.01 in   Mostly Cloudy
6:55 PM 78.8 °F - 75.2 °F 89% 30.02 in 7.0 mi Calm Calm - 0.05 in   Mostly Cloudy
7:15 PM 77.0 °F - 75.2 °F 94% 30.02 in 5.0 mi Calm Calm - N/A   Clear
7:35 PM 77.0 °F - 75.2 °F 94% 30.02 in 10.0 mi SSW 4.6 mph - N/A   Clear
7:55 PM 77.0 °F - 75.2 °F 94% 30.02 in 10.0 mi Calm Calm - N/A   Clear
8:15 PM 77.0 °F - 75.2 °F 94% 30.01 in 10.0 mi SSE 3.5 mph - 0.01 in   Clear
8:35 PM 75.2 °F - 73.4 °F 94% 30.01 in 5.0 mi Calm Calm - 0.01 in   Clear
8:55 PM 77.0 °F - 75.2 °F 94% 30.03 in 7.0 mi Calm Calm - 0.01 in   Clear
9:15 PM 75.2 °F - 73.4 °F 94% 30.03 in 10.0 mi SSW 5.8 mph - N/A   Clear
9:35 PM 75.2 °F - 73.4 °F 94% 30.04 in 10.0 mi Calm Calm - N/A   Clear
9:55 PM 75.2 °F - 73.4 °F 94% 30.04 in 10.0 mi Calm Calm - N/A   Clear
10:15 PM 75.2 °F - 73.4 °F 94% 30.03 in 10.0 mi WSW 3.5 mph - N/A   Clear